TimeEST,TemperatureF,Dew PointF,Humidity,Sea Level PressureIn,VisibilityMPH,Wind Direction,Wind SpeedMPH,Gust SpeedMPH,PrecipitationIn,Events,Conditions,WindDirDegrees,DateUTC
12:15 AM,39.2,37.4,93,29.92,3.0,SSE,11.5,-,N/A,,Mostly Cloudy,150,2011-12-04 05:15:00
12:35 AM,39.2,37.4,93,29.92,5.0,SSE,12.7,-,N/A,,Overcast,150,2011-12-04 05:35:00
12:55 AM,39.2,37.4,93,29.91,7.0,SSE,12.7,16.1,N/A,,Overcast,150,2011-12-04 05:55:00
1:15 AM,39.2,35.6,87,29.89,5.0,SSE,12.7,-,N/A,,Overcast,150,2011-12-04 06:15:00
1:35 AM,39.2,35.6,87,29.89,6.0,SSE,9.2,-,N/A,,Overcast,150,2011-12-04 06:35:00
1:55 AM,39.2,35.6,87,29.88,5.0,SSE,9.2,-,N/A,,Overcast,150,2011-12-04 06:55:00
2:15 AM,39.2,35.6,87,29.87,3.0,SSE,8.1,-,N/A,,Overcast,150,2011-12-04 07:15:00
2:35 AM,39.2,35.6,87,29.87,4.0,SSE,9.2,-,0.01,,Overcast,150,2011-12-04 07:35:00
2:55 AM,39.2,35.6,87,29.86,5.0,SE,9.2,-,0.02,,Overcast,140,2011-12-04 07:55:00
3:15 AM,37.4,35.6,93,29.84,4.0,SE,11.5,-,N/A,,Overcast,140,2011-12-04 08:15:00
3:35 AM,39.2,35.6,87,29.83,6.0,SE,10.4,-,0.01,,Overcast,140,2011-12-04 08:35:00
4:15 AM,39.2,35.6,87,29.81,5.0,SSE,9.2,-,0.02,,Overcast,150,2011-12-04 09:15:00
4:35 AM,39.2,35.6,87,29.80,4.0,SE,11.5,-,0.02,,Overcast,140,2011-12-04 09:35:00
4:55 AM,39.2,35.6,87,29.80,3.0,SE,10.4,-,0.02,,Overcast,140,2011-12-04 09:55:00
5:15 AM,37.4,35.6,93,29.79,3.0,SSE,10.4,-,N/A,,Overcast,150,2011-12-04 10:15:00
5:35 AM,37.4,35.6,93,29.76,2.5,SE,11.5,-,N/A,,Overcast,140,2011-12-04 10:35:00
5:55 AM,39.2,35.6,87,29.77,2.5,SE,10.4,-,N/A,,Overcast,140,2011-12-04 10:55:00
6:15 AM,39.2,35.6,87,29.77,2.5,SSE,9.2,-,N/A,,Overcast,150,2011-12-04 11:15:00
6:35 AM,39.2,35.6,87,29.78,2.0,SSE,8.1,-,N/A,,Overcast,150,2011-12-04 11:35:00
7:35 AM,39.2,37.4,93,29.76,2.5,SSE,6.9,-,N/A,,Overcast,160,2011-12-04 12:35:00
7:55 AM,39.2,37.4,93,29.76,3.0,SSE,5.8,-,N/A,,Overcast,160,2011-12-04 12:55:00
8:15 AM,41.0,37.4,87,29.76,3.0,South,6.9,-,N/A,,Overcast,170,2011-12-04 13:15:00
8:35 AM,41.0,37.4,87,29.77,2.0,South,5.8,-,N/A,,Overcast,170,2011-12-04 13:35:00
8:55 AM,41.0,37.4,87,29.77,1.2,South,4.6,-,0.01,,Overcast,170,2011-12-04 13:55:00
9:15 AM,42.8,39.2,87,29.77,1.0,SSW,4.6,-,N/A,,Overcast,210,2011-12-04 14:15:00
10:15 AM,41.0,37.4,87,29.79,1.8,NW,15.0,-,N/A,,Overcast,320,2011-12-04 15:15:00
10:35 AM,39.2,37.4,93,29.80,2.5,NW,10.4,-,N/A,,Overcast,310,2011-12-04 15:35:00
10:55 AM,39.2,35.6,87,29.82,5.0,NW,12.7,18.4,N/A,,Overcast,310,2011-12-04 15:55:00
11:15 AM,37.4,33.8,87,29.82,10.0,NW,12.7,17.3,N/A,,Overcast,310,2011-12-04 16:15:00
11:35 AM,37.4,33.8,87,29.82,10.0,WNW,11.5,-,N/A,,Overcast,300,2011-12-04 16:35:00
11:55 AM,37.4,35.6,93,29.82,10.0,WNW,9.2,-,N/A,,Overcast,290,2011-12-04 16:55:00
12:15 PM,37.4,33.8,87,29.83,10.0,WNW,8.1,-,N/A,,Overcast,300,2011-12-04 17:15:00
12:35 PM,37.4,33.8,87,29.83,10.0,WNW,9.2,-,N/A,,Overcast,290,2011-12-04 17:35:00
12:55 PM,37.4,33.8,87,29.85,10.0,WNW,8.1,-,N/A,,Overcast,290,2011-12-04 17:55:00
1:15 PM,37.4,33.8,87,29.85,10.0,WNW,8.1,-,N/A,,Overcast,290,2011-12-04 18:15:00
1:35 PM,37.4,33.8,87,29.86,10.0,WNW,12.7,-,N/A,,Overcast,300,2011-12-04 18:35:00
1:55 PM,37.4,33.8,87,29.87,10.0,NW,11.5,16.1,N/A,,Overcast,310,2011-12-04 18:55:00
2:15 PM,37.4,33.8,87,29.88,10.0,WNW,11.5,-,N/A,,Overcast,300,2011-12-04 19:15:00
2:35 PM,37.4,33.8,87,29.88,10.0,WNW,11.5,18.4,N/A,,Overcast,300,2011-12-04 19:35:00
2:55 PM,37.4,33.8,87,29.89,10.0,WNW,12.7,16.1,N/A,,Overcast,300,2011-12-04 19:55:00
3:15 PM,37.4,33.8,87,29.90,10.0,WNW,11.5,-,N/A,,Overcast,300,2011-12-04 20:15:00
3:35 PM,37.4,33.8,87,29.91,10.0,WNW,11.5,-,N/A,,Overcast,300,2011-12-04 20:35:00
3:55 PM,37.4,33.8,87,29.92,10.0,NW,12.7,17.3,N/A,,Overcast,310,2011-12-04 20:55:00
4:15 PM,37.4,32.0,81,29.94,10.0,WNW,12.7,19.6,N/A,,Overcast,300,2011-12-04 21:15:00
5:15 PM,35.6,30.2,81,29.98,10.0,WNW,11.5,-,N/A,,Overcast,300,2011-12-04 22:15:00
5:35 PM,35.6,30.2,81,30.00,10.0,NW,12.7,-,N/A,,Overcast,310,2011-12-04 22:35:00
5:55 PM,35.6,30.2,81,30.01,10.0,WNW,11.5,-,N/A,,Overcast,300,2011-12-04 22:55:00
6:15 PM,35.6,28.4,75,30.02,10.0,NW,11.5,16.1,N/A,,Overcast,310,2011-12-04 23:15:00
6:35 PM,35.6,28.4,75,30.03,10.0,NW,9.2,-,N/A,,Overcast,320,2011-12-04 23:35:00
6:55 PM,35.6,28.4,75,30.04,10.0,NW,8.1,-,N/A,,Overcast,320,2011-12-04 23:55:00
7:15 PM,33.8,28.4,81,30.06,10.0,NNW,6.9,-,N/A,,Overcast,340,2011-12-05 00:15:00
7:35 PM,33.8,28.4,81,30.07,10.0,North,9.2,-,N/A,,Overcast,350,2011-12-05 00:35:00
7:55 PM,33.8,28.4,81,30.09,10.0,North,8.1,-,N/A,,Overcast,350,2011-12-05 00:55:00
8:15 PM,33.8,26.6,75,30.10,10.0,North,10.4,-,N/A,,Overcast,360,2011-12-05 01:15:00
8:35 PM,32.0,26.6,80,30.11,10.0,North,6.9,-,N/A,,Overcast,10,2011-12-05 01:35:00
8:55 PM,32.0,26.6,80,30.12,10.0,NNW,6.9,-,N/A,,Overcast,340,2011-12-05 01:55:00
9:15 PM,32.0,26.6,80,30.13,10.0,North,10.4,-,N/A,,Overcast,360,2011-12-05 02:15:00
9:35 PM,32.0,24.8,75,30.14,10.0,North,9.2,-,N/A,,Overcast,360,2011-12-05 02:35:00
9:55 PM,30.2,24.8,80,30.15,10.0,North,10.4,-,N/A,,Overcast,360,2011-12-05 02:55:00
10:15 PM,30.2,24.8,80,30.16,10.0,North,8.1,-,N/A,,Overcast,350,2011-12-05 03:15:00
11:35 PM,30.2,24.8,80,30.18,10.0,North,6.9,-,N/A,,Overcast,10,2011-12-05 04:35:00
11:55 PM,30.2,24.8,80,30.19,10.0,North,6.9,-,N/A,,Overcast,360,2011-12-05 04:55:00